SR9NLI Weather Reports


Display with metric or nautical units.
time (UTC)temp
F
wind
direction
speed
MPH
gust
MPH
rain 1hr
in
rain 24hr
in
rain mn
in
humidity
%
barometer
mb
20260901161502 65 297 6.0 9.0 0.00 0.00 0.00 100 961.7
20260901161259 65 295 5.0 9.0 0.00 0.00 0.00 100 961.7
20260901161056 65 287 4.0 8.0 0.00 0.00 0.00 100 961.7
20260901160956 65 280 4.0 7.0 0.00 0.00 0.00 100 961.8
20260901160853 65 281 5.0 7.0 0.00 0.00 0.00 100 961.7
20260901160649 65 284 5.0 9.0 0.00 0.00 0.00 100 961.6
20260901160446 65 289 5.0 9.0 0.00 0.00 0.00 100 961.6
20260901160346 66 288 6.0 9.0 0.00 0.00 0.00 100 961.7
20260901160243 66 285 6.0 9.0 0.00 0.00 0.00 100 961.6
20260901160039 66 270 6.0 12.0 0.00 0.00 0.00 100 961.5
20260901155837 66 277 6.0 12.0 0.00 0.00 0.00 100 961.5
20260901155736 66 280 8.0 12.0 0.00 0.00 0.00 100 961.6
20260901155440 66 273 6.0 12.0 0.00 0.00 0.00 100 961.6
20260901155237 66 283 5.0 8.0 0.00 0.00 0.00 100 961.6
20260901155136 66 289 5.0 8.0 0.00 0.00 0.00 100 961.5
20260901155033 66 294 5.0 8.0 0.00 0.00 0.00 100 961.5
20260901154830 66 310 5.0 7.0 0.00 0.00 0.00 100 961.5
20260901154628 66 298 4.0 6.0 0.00 0.00 0.00 100 961.4
20260901154527 66 295 5.0 8.0 0.00 0.00 0.00 100 961.5
20260901154424 66 299 5.0 8.0 0.00 0.00 0.00 100 961.5
20260901154221 66 295 6.0 8.0 0.00 0.00 0.00 100 961.5
20260901154018 66 288 5.0 8.0 0.00 0.00 0.00 100 961.4
20260901153904 66 283 5.0 7.0 0.00 0.00 0.00 100 961.4
20260901153801 66 286 4.0 7.0 0.00 0.00 0.00 100 961.5
20260901153559 67 293 5.0 9.0 0.00 0.00 0.00 100 961.5
20260901153356 66 303 8.0 14.0 0.00 0.00 0.00 100 961.4
20260901153254 66 305 8.0 14.0 0.00 0.00 0.00 100 961.4
20260901153152 66 298 10.0 18.0 0.00 0.00 0.00 100 961.5
20260901152949 66 288 8.0 18.0 0.00 0.00 0.00 100 961.4
20260901152746 67 287 7.0 12.0 0.00 0.00 0.00 100 961.3
20260901152645 67 291 7.0 12.0 0.00 0.00 0.00 100 961.4
20260901152543 67 296 7.0 12.0 0.00 0.00 0.00 100 961.4
20260901152340 67 301 7.0 11.0 0.00 0.00 0.00 100 961.4
20260901152137 67 300 6.0 9.0 0.00 0.00 0.00 100 961.4
20260901152037 67 302 5.0 7.0 0.00 0.00 0.00 100 961.4
20260901151935 67 306 6.0 10.0 0.00 0.00 0.00 100 961.4
20260901151731 67 309 6.0 10.0 0.00 0.00 0.00 100 961.4
20260901151528 67 300 4.0 9.0 0.00 0.00 0.00 100 961.4
20260901151427 67 295 3.0 7.0 0.00 0.00 0.00 100 961.4
20260901151325 67 286 4.0 6.0 0.00 0.00 0.00 100 961.4
20260901151122 67 288 5.0 8.0 0.00 0.00 0.00 100 961.3
20260901150919 67 303 7.0 12.0 0.00 0.00 0.00 100 961.4
20260901150818 67 295 8.0 14.0 0.00 0.00 0.00 100 961.3
20260901150716 67 291 7.0 14.0 0.00 0.00 0.00 100 961.3
20260901150513 68 253 5.0 14.0 0.00 0.00 0.00 100 961.3
20260901150310 68 243 2.0 9.0 0.00 0.00 0.00 100 961.4
20260901150209 68 254 2.0 8.0 0.00 0.00 0.00 100 961.3
20260901150107 68 270 2.0 6.0 0.00 0.00 0.00 100 961.4
20260901145904 67 282 5.0 9.0 0.00 0.00 0.00 100 961.3
20260901145701 67 290 6.0 8.0 0.00 0.00 0.00 100 961.3
20260901145601 67 293 6.0 8.0 0.00 0.00 0.00 100 961.2
20260901145458 67 294 6.0 8.0 0.00 0.00 0.00 100 961.2
20260901145256 68 287 3.0 7.0 0.00 0.00 0.00 100 961.3
20260901145052 68 290 4.0 14.0 0.00 0.00 0.00 100 961.3
20260901144952 68 290 5.0 15.0 0.00 0.00 0.00 100 961.3
20260901144849 68 291 6.0 15.0 0.00 0.00 0.00 100 961.3
20260901144646 68 286 4.0 14.0 0.00 0.00 0.00 100 961.3
20260901144443 68 287 4.0 9.0 0.00 0.00 0.00 100 961.3
20260901144342 68 289 6.0 10.0 0.00 0.00 0.00 100 961.3
20260901144239 68 295 6.0 10.0 0.00 0.00 0.00 100 961.2
20260901144036 68 305 5.0 10.0 0.00 0.00 0.00 100 961.3
20260901143833 68 300 5.0 9.0 0.00 0.00 0.00 100 961.3
20260901143732 68 303 6.0 13.0 0.00 0.00 0.00 100 961.3
20260901143630 67 306 8.0 13.0 0.00 0.00 0.00 100 961.4
20260901143427 67 317 8.0 13.0 0.00 0.00 0.00 100 961.3
20260901143224 67 313 7.0 14.0 0.00 0.00 0.00 100 961.3
20260901143123 67 307 6.0 14.0 0.00 0.00 0.00 100 961.2
20260901143021 67 302 6.0 14.0 0.00 0.00 0.00 100 961.2
20260901142818 67 304 7.0 12.0 0.00 0.00 0.00 100 961.4
20260901142615 67 302 5.0 12.0 0.00 0.00 0.00 100 961.1
20260901142515 67 291 4.0 11.0 0.00 0.00 0.00 100 961.1
20260901142412 67 283 4.0 8.0 0.00 0.00 0.00 100 961.3
20260901142209 67 285 5.0 8.0 0.00 0.00 0.00 100 961.2
20260901142005 67 297 8.0 15.0 0.00 0.00 0.00 100 961.2
20260901141905 67 300 8.0 15.0 0.00 0.00 0.00 100 961.2
20260901141803 67 299 9.0 15.0 0.00 0.00 0.00 100 961.1
20260901141601 67 287 9.0 19.0 0.00 0.00 0.00 100 961.2
20260901141357 67 285 9.0 19.0 0.00 0.00 0.00 100 961.2
20260901141257 67 285 8.0 14.0 0.00 0.00 0.00 100 961.2
20260901141155 67 294 8.0 16.0 0.00 0.00 0.00 100 961.1
20260901140951 67 297 9.0 16.0 0.00 0.00 0.00 100 961.2
20260901140749 67 293 8.0 14.0 0.00 0.00 0.00 100 961.1
20260901140650 67 288 8.0 13.0 0.00 0.00 0.00 100 961.0
20260901140546 67 286 9.0 13.0 0.00 0.00 0.00 100 961.2
20260901140343 67 285 10.0 14.0 0.00 0.00 0.00 100 961.1
20260901140140 67 288 9.0 16.0 0.00 0.00 0.00 100 961.1
20260901140039 67 291 8.0 16.0 0.00 0.00 0.00 100 961.1
20260901135936 67 286 8.0 15.0 0.00 0.00 0.00 100 961.1
20260901135733 67 265 4.0 12.0 0.00 0.00 0.00 100 961.1
20260901135530 68 233 3.0 14.0 0.00 0.00 0.00 100 961.2
20260901135430 68 243 3.0 14.0 0.00 0.00 0.00 100 961.1
20260901135328 68 250 3.0 14.0 0.00 0.00 0.00 100 961.0
20260901135125 68 257 3.0 9.0 0.00 0.00 0.00 100 961.2
20260901134921 68 284 5.0 9.0 0.00 0.00 0.00 100 961.1
20260901134821 67 287 7.0 14.0 0.00 0.00 0.00 100 961.2
20260901134718 67 289 9.0 14.0 0.00 0.00 0.00 100 961.1
20260901134515 67 289 8.0 14.0 0.00 0.00 0.00 100 961.2
20260901134312 67 278 8.0 17.0 0.00 0.00 0.00 100 961.2
20260901134211 67 269 7.0 17.0 0.00 0.00 0.00 100 961.2
20260901134109 67 268 6.0 17.0 0.00 0.00 0.00 100 961.1
20260901133906 68 257 4.0 10.0 0.00 0.00 0.00 100 961.1
20260901133703 68 264 4.0 10.0 0.00 0.00 0.00 100 961.2
20260901133602 68 267 3.0 10.0 0.00 0.00 0.00 100 961.2
20260901133500 68 274 3.0 6.0 0.00 0.00 0.00 100 961.2
20260901133257 68 292 4.0 7.0 0.00 0.00 0.00 100 961.2
20260901133054 67 299 4.0 7.0 0.00 0.00 0.00 100 961.1
20260901132851 68 296 4.0 8.0 0.00 0.00 0.00 100 961.1
20260901132648 68 294 5.0 11.0 0.00 0.00 0.00 100 961.2
20260901132445 67 303 9.0 14.0 0.00 0.00 0.00 100 961.1
20260901132344 67 300 10.0 14.0 0.00 0.00 0.00 100 961.2
20260901132241 67 295 10.0 14.0 0.00 0.00 0.00 100 961.2
20260901132038 68 285 9.0 14.0 0.00 0.00 0.00 100 961.1
20260901131835 68 283 3.0 15.0 0.00 0.00 0.00 100 961.1
20260901131734 68 274 2.0 9.0 0.00 0.00 0.00 100 961.3
20260901131631 68 294 2.0 5.0 0.00 0.00 0.00 100 961.2
20260901131428 68 304 3.0 8.0 0.00 0.00 0.00 100 961.2
20260901131225 68 301 4.0 8.0 0.00 0.00 0.00 100 961.3
20260901131124 68 294 3.0 8.0 0.00 0.00 0.00 100 961.2
20260901131022 68 296 3.0 7.0 0.00 0.00 0.00 100 961.2
20260901130819 68 285 4.0 11.0 0.00 0.00 0.00 100 961.2
20260901130616 68 286 6.0 11.0 0.00 0.00 0.00 100 961.3
20260901130515 68 283 7.0 11.0 0.00 0.00 0.00 100 961.3
20260901130413 67 280 7.0 12.0 0.00 0.00 0.00 100 961.2
20260901130210 67 263 6.0 12.0 0.00 0.00 0.00 100 961.1
20260901125953 68 264 6.0 13.0 0.00 0.00 0.00 100 961.2
20260901125853 68 266 6.0 13.0 0.00 0.00 0.00 100 961.2
20260901125750 68 262 5.0 13.0 0.00 0.00 0.00 100 961.2
20260901125547 67 265 4.0 10.0 0.00 0.00 0.00 100 961.2
20260901125344 66 284 6.0 11.0 0.00 0.00 0.00 100 961.4
20260901125243 66 285 6.0 11.0 0.00 0.00 0.00 100 961.3
20260901125141 66 288 6.0 11.0 0.00 0.00 0.00 100 961.4
20260901124939 66 294 4.0 7.0 0.00 0.00 0.00 100 961.3
20260901124735 66 296 6.0 10.0 0.00 0.00 0.00 100 961.3
20260901124634 66 293 6.0 10.0 0.00 0.00 0.00 100 961.3
20260901124532 66 297 6.0 10.0 0.00 0.00 0.00 100 961.3
20260901124329 66 282 5.0 12.0 0.00 0.00 0.00 100 961.3
20260901124126 66 266 6.0 12.0 0.00 0.00 0.00 100 961.4
20260901124025 66 262 6.0 12.0 0.00 0.00 0.00 100 961.4
20260901123922 66 265 5.0 12.0 0.00 0.00 0.00 100 961.4
20260901123719 66 284 6.0 11.0 0.00 0.00 0.00 100 961.5
20260901123516 66 292 6.0 11.0 0.00 0.00 0.00 100 961.3
20260901123415 66 295 6.0 11.0 0.00 0.00 0.00 100 961.4
20260901123313 66 292 6.0 11.0 0.00 0.00 0.00 100 961.3
20260901123110 66 294 6.0 12.0 0.00 0.00 0.00 100 961.2
20260901122907 66 291 6.0 12.0 0.00 0.00 0.00 100 961.2
20260901122806 67 289 4.0 12.0 0.00 0.00 0.00 100 961.3
20260901122704 67 289 5.0 9.0 0.00 0.00 0.00 100 961.3
20260901122500 67 293 6.0 10.0 0.00 0.00 0.00 100 961.3
20260901122257 67 288 6.0 10.0 0.00 0.00 0.00 100 961.3
20260901122156 67 286 5.0 10.0 0.00 0.00 0.00 100 961.2
20260901122054 67 266 4.0 10.0 0.00 0.00 0.00 100 961.3
20260901121851 67 258 4.0 10.0 0.00 0.00 0.00 100 961.3
20260901121648 67 269 6.0 11.0 0.00 0.00 0.00 100 961.4
20260901121445 67 291 7.0 11.0 0.00 0.00 0.00 100 961.2
20260901121241 67 300 5.0 10.0 0.00 0.00 0.00 100 961.3
20260901121038 67 286 6.0 10.0 0.00 0.00 0.00 100 961.3
20260901120937 67 284 6.0 10.0 0.00 0.00 0.00 100 961.3
20260901120835 66 282 7.0 14.0 0.00 0.00 0.00 100 961.4
20260901120633 66 274 8.0 14.0 0.00 0.00 0.00 100 961.3
20260901120429 66 276 9.0 14.0 0.00 0.00 0.00 100 961.3
20260901120329 66 276 9.0 16.0 0.00 0.00 0.00 100 961.3
20260901120227 66 278 8.0 16.0 0.00 0.00 0.00 100 961.4
20260901120023 66 272 8.0 16.0 0.00 0.00 0.00 100 961.3
20260901115820 66 277 10.0 17.0 0.00 0.00 0.00 100 961.3
20260901115720 66 278 10.0 17.0 0.00 0.00 0.00 100 961.4
20260901115617 66 281 11.0 17.0 0.00 0.00 0.00 100 961.2
20260901115414 66 285 11.0 17.0 0.00 0.00 0.00 100 961.4
20260901115212 67 282 11.0 17.0 0.00 0.00 0.00 100 961.3
20260901115112 67 279 8.0 16.0 0.00 0.00 0.00 100 961.4
20260901115009 67 275 6.0 16.0 0.00 0.00 0.00 100 961.4
20260901114806 68 247 4.0 11.0 0.00 0.00 0.00 100 961.3
20260901114602 68 253 5.0 11.0 0.00 0.00 0.00 100 961.3
20260901114502 68 262 6.0 15.0 0.00 0.00 0.00 100 961.3
20260901114359 68 274 6.0 15.0 0.00 0.00 0.00 100 961.2
20260901114156 68 288 7.0 15.0 0.00 0.00 0.00 100 961.2
20260901113952 68 289 6.0 10.0 0.00 0.00 0.00 100 961.2
20260901113852 67 288 6.0 10.0 0.00 0.00 0.00 100 961.3
20260901113750 67 288 6.0 10.0 0.00 0.00 0.00 100 961.3
20260901113547 68 283 4.0 8.0 0.00 0.00 0.00 100 961.3
20260901113344 68 259 2.0 8.0 0.00 0.00 0.00 100 961.3
20260901113141 67 267 3.0 8.0 0.00 0.00 0.00 100 961.3
20260901112938 67 267 5.0 12.0 0.00 0.00 0.00 100 961.3
20260901112734 66 257 5.0 12.0 0.00 0.00 0.00 100 961.3
20260901112634 66 255 5.0 12.0 0.00 0.00 0.00 100 961.3
20260901112531 66 253 5.0 11.0 0.00 0.00 0.00 100 961.3
20260901112328 66 256 4.0 11.0 0.00 0.00 0.00 100 961.3
20260901112125 67 246 3.0 9.0 0.00 0.00 0.00 100 961.3
20260901112025 67 245 3.0 9.0 0.00 0.00 0.00 100 961.3
20260901111922 67 246 4.0 11.0 0.00 0.00 0.00 100 961.2
20260901111719 67 242 3.0 11.0 0.00 0.00 0.00 100 961.3
20260901111516 66 242 3.0 13.0 0.00 0.00 0.00 100 961.3
20260901111415 66 246 4.0 15.0 0.00 0.00 0.00 100 961.3
20260901111313 66 248 5.0 15.0 0.00 0.00 0.00 100 961.3
20260901111109 66 246 5.0 15.0 0.00 0.00 0.00 100 961.3
20260901110906 67 248 4.0 14.0 0.00 0.00 0.00 100 961.2
20260901110806 67 256 4.0 14.0 0.00 0.00 0.00 100 961.1
20260901110704 67 256 4.0 10.0 0.00 0.00 0.00 100 961.3
20260901110500 68 254 5.0 10.0 0.00 0.00 0.00 100 961.4
20260901110259 68 244 3.0 10.0 0.00 0.00 0.00 100 961.4
20260901110157 68 232 2.0 6.0 0.00 0.00 0.00 100 961.4
20260901110055 69 233 2.0 10.0 0.00 0.00 0.00 100 961.3
20260901105851 69 236 2.0 13.0 0.00 0.00 0.00 100 961.3
20260901105648 69 253 3.0 13.0 0.00 0.00 0.00 100 961.3
20260901105548 69 256 4.0 15.0 0.00 0.00 0.00 100 961.3
20260901105445 70 256 4.0 15.0 0.00 0.00 0.00 100 961.4
20260901105242 69 241 3.0 15.0 0.00 0.00 0.00 100 961.2
20260901105039 70 254 3.0 8.0 0.00 0.00 0.00 100 961.2
20260901104939 70 256 3.0 8.0 0.00 0.00 0.00 100 961.3
20260901104836 69 266 3.0 8.0 0.00 0.00 0.00 100 961.3
20260901104633 69 255 2.0 9.0 0.00 0.00 0.00 100 961.4
20260901104430 69 264 4.0 13.0 0.00 0.00 0.00 100 961.4
20260901104329 68 265 4.0 13.0 0.00 0.00 0.00 100 961.4
20260901104227 67 263 4.0 13.0 0.00 0.00 0.00 100 961.4
20260901104024 68 239 2.0 10.0 0.00 0.00 0.00 100 961.4
20260901103821 67 238 3.0 10.0 0.00 0.00 0.00 100 961.5
20260901103720 67 236 4.0 11.0 0.00 0.00 0.00 100 961.4
20260901103618 67 238 3.0 11.0 0.00 0.00 0.00 100 961.4
20260901103414 67 235 3.0 14.0 0.00 0.00 0.00 100 961.5
20260901103211 68 231 4.0 14.0 0.00 0.00 0.00 100 961.3
20260901103111 68 232 4.0 13.0 0.00 0.00 0.00 100 961.4
20260901103008 68 223 4.0 13.0 0.00 0.00 0.00 100 961.3
20260901102805 68 219 2.0 13.0 0.00 0.00 0.00 100 961.4
20260901102602 68 217 2.0 7.0 0.00 0.00 0.00 100 961.4
20260901102400 68 263 3.0 13.0 0.00 0.00 0.00 100 961.4
20260901102157 66 261 6.0 13.0 0.00 0.00 0.00 100 961.4
20260901101944 66 264 6.0 15.0 0.00 0.00 0.00 100 961.4
20260901101843 66 262 5.0 15.0 0.00 0.00 0.00 100 961.5
20260901101741 66 264 4.0 15.0 0.00 0.00 0.00 100 961.3
20260901101538 68 241 2.0 6.0 0.00 0.00 0.00 100 961.5
20260901101335 68 231 2.0 10.0 0.00 0.00 0.00 100 961.2
20260901101234 68 221 2.0 10.0 0.00 0.00 0.00 100 961.2
20260901101132 68 219 2.0 10.0 0.00 0.00 0.00 100 961.2
20260901100928 69 219 2.0 10.0 0.00 0.00 0.00 100 961.3
20260901100725 69 232 2.0 9.0 0.00 0.00 0.00 100 961.3
20260901100625 69 241 3.0 9.0 0.00 0.00 0.00 100 961.3
20260901100523 68 265 5.0 13.0 0.00 0.00 0.00 100 961.3
20260901100320 66 264 6.0 15.0 0.00 0.00 0.00 100 961.3
20260901100117 67 250 4.0 15.0 0.00 0.00 0.00 100 961.2
20260901100016 68 240 3.0 15.0 0.00 0.00 0.00 100 961.3
20260901095914 69 221 2.0 7.0 0.00 0.00 0.00 100 961.3
20260901095712 68 237 2.0 13.0 0.00 0.00 0.00 100 961.3
20260901095508 69 234 2.0 13.0 0.00 0.00 0.00 100 961.2
20260901095408 69 229 2.0 10.0 0.00 0.00 0.00 100 961.3
20260901095306 69 230 3.0 13.0 0.00 0.00 0.00 100 961.2
20260901095102 69 251 4.0 13.0 0.00 0.00 0.00 100 961.2
20260901094859 69 256 3.0 9.0 0.00 0.00 0.00 100 961.2
20260901094758 68 256 3.0 9.0 0.00 0.00 0.00 100 961.2
20260901094656 68 242 2.0 10.0 0.00 0.00 0.00 100 961.2
20260901094453 69 246 4.0 16.0 0.00 0.00 0.00 100 961.3
20260901094250 68 245 4.0 16.0 0.00 0.00 0.00 100 961.2
20260901094047 69 229 2.0 9.0 0.00 0.00 0.00 100 961.2
20260901093845 68 234 3.0 13.0 0.00 0.00 0.00 100 961.4
20260901093642 68 253 4.0 13.0 0.00 0.00 0.00 100 961.1
20260901093541 68 252 4.0 12.0 0.00 0.00 0.00 100 961.3
20260901093438 68 259 5.0 14.0 0.00 0.00 0.00 100 961.2
20260901093235 68 256 5.0 14.0 0.00 0.00 0.00 100 961.2
20260901093032 69 250 3.0 13.0 0.00 0.00 0.00 100 961.2
20260901092931 69 264 2.0 9.0 0.00 0.00 0.00 100 961.1
20260901092829 68 269 3.0 10.0 0.00 0.00 0.00 100 961.3
20260901092625 66 280 7.0 12.0 0.00 0.00 0.00 100 961.1
20260901092423 66 283 9.0 17.0 0.00 0.00 0.00 100 961.1
20260901092323 66 285 9.0 17.0 0.00 0.00 0.00 100 961.2
20260901092220 66 286 8.0 17.0 0.00 0.00 0.00 100 961.2
20260901092017 66 282 6.0 14.0 0.00 0.00 0.00 100 961.2
20260901091814 66 273 7.0 16.0 0.00 0.00 0.00 100 961.2
20260901091714 66 268 7.0 16.0 0.00 0.00 0.00 100 961.1
20260901091611 68 260 4.0 16.0 0.00 0.00 0.00 100 961.1
20260901091408 68 268 4.0 12.0 0.00 0.00 0.00 100 961.1
20260901091204 67 329 4.0 12.0 0.00 0.00 0.00 100 961.1
20260901091104 67 9 2.0 8.0 0.00 0.00 0.00 100 961.2
20260901091002 68 357 2.0 6.0 0.00 0.00 0.00 100 961.2
20260901090759 67 323 3.0 8.0 0.00 0.00 0.00 100 961.3
20260901090556 67 326 4.0 8.0 0.00 0.00 0.00 100 961.2
20260901090352 67 315 2.0 7.0 0.00 0.00 0.00 100 961.1
20260901090149 68 271 2.0 6.0 0.00 0.00 0.00 100 961.1
20260901085946 68 284 3.0 9.0 0.00 0.00 0.00 100 961.0
20260901085846 67 290 4.0 9.0 0.00 0.00 0.00 100 961.1
20260901085743 67 294 4.0 9.0 0.00 0.00 0.00 100 961.2
20260901085540 67 283 5.0 12.0 0.00 0.00 0.00 100 961.1
20260901085337 69 253 3.0 12.0 0.00 0.00 0.00 100 961.1
20260901085134 68 221 2.0 8.0 0.00 0.00 0.00 100 961.1
20260901084932 68 271 3.0 9.0 0.00 0.00 0.00 100 961.1
20260901084729 66 279 7.0 15.0 0.00 0.00 0.00 100 961.0
20260901084628 66 282 8.0 15.0 0.00 0.00 0.00 100 961.0
20260901084526 66 287 7.0 15.0 0.00 0.00 0.00 100 961.0
20260901084323 66 294 6.0 9.0 0.00 0.00 0.00 100 960.9
20260901084119 67 280 3.0 8.0 0.00 0.00 0.00 100 961.0
20260901084019 67 262 2.0 8.0 0.00 0.00 0.00 100 961.1
20260901083917 66 275 2.0 7.0 0.00 0.00 0.00 100 961.0
20260901083714 66 314 4.0 11.0 0.00 0.00 0.00 100 961.0
20260901083511 66 300 7.0 11.0 0.00 0.00 0.00 100 961.0
20260901083410 66 296 7.0 11.0 0.00 0.00 0.00 100 961.0
20260901083308 65 299 8.0 12.0 0.00 0.00 0.00 100 961.1
20260901083105 65 306 8.0 13.0 0.00 0.00 0.00 100 960.9
20260901082901 65 301 6.0 12.0 0.00 0.00 0.00 100 960.9
20260901082801 65 304 6.0 11.0 0.00 0.00 0.00 100 961.0
20260901082658 65 305 6.0 11.0 0.00 0.00 0.00 100 961.0
20260901082455 64 311 8.0 13.0 0.00 0.00 0.00 100 961.0
20260901082252 64 313 9.0 14.0 0.00 0.00 0.00 100 960.8
20260901082049 65 318 10.0 17.0 0.00 0.00 0.00 100 960.7
20260901081846 65 306 10.0 17.0 0.00 0.00 0.00 100 960.7
20260901081643 65 286 7.0 16.0 0.00 0.00 0.00 100 960.8
20260901081543 66 282 6.0 14.0 0.00 0.00 0.00 100 960.8
20260901081440 66 267 2.0 14.0 0.00 0.00 0.00 100 960.8
20260901081237 67 255 2.0 8.0 0.00 0.00 0.00 100 960.8
20260901081034 66 269 4.0 9.0 0.00 0.00 0.00 100 960.8
20260901080933 65 280 5.0 14.0 0.00 0.00 0.00 100 960.8
20260901080831 65 286 7.0 14.0 0.00 0.00 0.00 100 960.8
20260901080627 65 289 8.0 14.0 0.00 0.00 0.00 100 960.7
20260901080424 65 284 8.0 16.0 0.00 0.00 0.00 100 960.7
20260901080323 65 277 7.0 16.0 0.00 0.00 0.00 100 960.8
20260901080221 65 276 7.0 16.0 0.00 0.00 0.00 100 960.8
20260901080018 65 256 5.0 9.0 0.00 0.00 0.00 100 960.8
20260901075815 64 267 6.0 11.0 0.00 0.00 0.00 100 960.8
20260901075714 64 275 7.0 14.0 0.00 0.00 0.00 100 960.7
20260901075612 64 279 8.0 14.0 0.00 0.00 0.00 100 960.8
20260901075409 64 293 10.0 16.0 0.00 0.00 0.00 100 960.7
20260901075205 64 293 11.0 16.0 0.00 0.00 0.00 100 960.5
20260901075104 64 290 10.0 17.0 0.00 0.00 0.00 100 960.5
20260901075002 64 283 10.0 17.0 0.00 0.00 0.00 100 960.7
20260901074759 65 259 7.0 19.0 0.00 0.00 0.00 100 960.6
20260901074555 66 258 5.0 19.0 0.00 0.00 0.00 100 960.6
20260901074455 66 275 6.0 13.0 0.00 0.00 0.00 100 960.6
20260901074353 66 281 6.0 13.0 0.00 0.00 0.00 100 960.5
20260901074137 66 279 3.0 12.0 0.00 0.00 0.00 100 960.5
20260901073934 68 0 1.0 7.0 0.00 0.00 0.00 100 960.6
20260901073833 68 0 1.0 7.0 0.00 0.00 0.00 100 960.5
20260901073730 67 0 1.0 7.0 0.00 0.00 0.00 100 960.5
20260901073528 67 0 1.0 9.0 0.00 0.00 0.00 100 960.4
20260901073325 67 216 2.0 9.0 0.00 0.00 0.00 100 960.5
20260901073224 67 221 2.0 8.0 0.00 0.00 0.00 100 960.4
20260901073121 67 227 2.0 8.0 0.00 0.00 0.00 100 960.5
20260901072917 67 229 1.0 6.0 0.00 0.00 0.00 100 960.5
20260901072714 67 0 2.0 6.0 0.00 0.00 0.00 100 960.5
20260901072614 67 230 2.0 6.0 0.00 0.00 0.00 100 960.4
20260901072511 67 0 2.0 6.0 0.00 0.00 0.00 100 960.4
20260901072309 67 223 2.0 8.0 0.00 0.00 0.00 100 960.4
20260901072105 67 235 2.0 8.0 0.00 0.00 0.00 100 960.4
20260901072005 67 0 1.0 6.0 0.00 0.00 0.00 100 960.4
20260901071902 67 0 1.0 4.0 0.00 0.00 0.00 100 960.4
20260901071659 67 215 2.0 10.0 0.00 0.00 0.00 100 960.4
20260901071456 66 234 2.0 11.0 0.00 0.00 0.00 100 960.5
20260901071356 67 229 3.0 11.0 0.00 0.00 0.00 100 960.3
20260901071253 67 238 3.0 13.0 0.00 0.00 0.00 100 960.3
20260901071050 66 225 3.0 13.0 0.00 0.00 0.00 100 960.3
20260901070847 66 200 1.0 10.0 0.00 0.00 0.00 100 960.4
20260901070745 66 234 2.0 6.0 0.00 0.00 0.00 100 960.4
20260901070643 66 260 3.0 8.0 0.00 0.00 0.00 100 960.4
20260901070440 65 284 5.0 14.0 0.00 0.00 0.00 100 960.3
20260901070237 65 282 3.0 14.0 0.00 0.00 0.00 100 960.3
20260901070034 66 236 1.0 9.0 0.00 0.00 0.00 100 960.3
20260901065831 66 296 3.0 9.0 0.00 0.00 0.00 100 960.3
20260901065628 65 286 4.0 9.0 0.00 0.00 0.00 100 960.2
20260901065527 65 274 3.0 9.0 0.00 0.00 0.00 100 960.3
20260901065425 66 252 3.0 8.0 0.00 0.00 0.00 100 960.3
20260901065222 65 277 4.0 8.0 0.00 0.00 0.00 100 960.4
20260901065019 64 287 4.0 8.0 0.00 0.00 0.00 100 960.2
20260901064918 64 287 4.0 8.0 0.00 0.00 0.00 100 960.2
20260901064815 65 279 4.0 10.0 0.00 0.00 0.00 100 960.4
20260901064612 64 284 9.0 18.0 0.00 0.00 0.00 100 960.3
20260901064410 64 281 8.0 18.0 0.00 0.00 0.00 100 960.3
20260901064309 64 271 8.0 18.0 0.00 0.00 0.00 100 960.2
20260901064207 64 266 7.0 14.0 0.00 0.00 0.00 100 960.5
20260901064004 64 265 10.0 17.0 0.00 0.00 0.00 100 960.4
20260901063801 64 265 8.0 17.0 0.00 0.00 0.00 100 960.2
20260901063701 64 259 6.0 17.0 0.00 0.00 0.00 100 960.2
20260901063558 64 257 6.0 17.0 0.00 0.00 0.00 100 960.3
20260901063355 64 255 6.0 17.0 0.00 0.00 0.00 100 960.3
20260901063153 64 262 8.0 18.0 0.00 0.00 0.00 100 960.3
20260901062950 64 256 6.0 18.0 0.00 0.00 0.00 100 960.1
20260901062747 65 246 5.0 16.0 0.00 0.00 0.00 100 960.3
20260901062543 65 268 7.0 16.0 0.00 0.00 0.00 100 960.3
20260901062443 65 270 6.0 13.0 0.00 0.00 0.00 100 960.2
20260901062341 64 275 5.0 13.0 0.00 0.00 0.00 100 960.2
20260901062138 66 244 2.0 10.0 0.00 0.00 0.00 100 960.3
20260901061935 66 241 2.0 8.0 0.00 0.00 0.00 100 960.3
20260901061834 65 246 2.0 8.0 0.00 0.00 0.00 100 960.2
20260901061731 66 235 1.0 7.0 0.00 0.00 0.00 100 960.1
20260901061528 66 248 1.0 6.0 0.00 0.00 0.00 100 960.2
20260901061325 65 283 3.0 10.0 0.00 0.00 0.00 100 960.1
20260901061224 65 281 4.0 10.0 0.00 0.00 0.00 100 960.1
20260901061122 65 276 5.0 10.0 0.00 0.00 0.00 100 960.1
20260901060919 65 265 3.0 10.0 0.00 0.00 0.00 100 960.1
20260901060716 66 248 2.0 9.0 0.00 0.00 0.00 100 960.1
20260901060616 65 249 3.0 9.0 0.00 0.00 0.00 100 960.1
20260901060513 65 252 2.0 9.0 0.00 0.00 0.00 100 960.1
20260901060310 66 214 1.0 6.0 0.00 0.00 0.00 100 960.1
20260901060106 66 207 1.0 6.0 0.00 0.00 0.00 100 960.1
20260901055903 66 0 1.0 6.0 0.00 0.00 0.00 100 960.2
20260901055700 65 0 1.0 6.0 0.00 0.00 0.00 100 960.1
20260901055457 65 232 2.0 6.0 0.00 0.00 0.00 100 960.1
20260901055356 65 223 2.0 6.0 0.00 0.00 0.00 100 960.1
20260901055253 65 219 2.0 6.0 0.00 0.00 0.00 100 960.1
20260901055050 65 219 2.0 6.0 0.00 0.00 0.00 100 960.0
20260901054847 65 219 1.0 6.0 0.00 0.00 0.00 100 960.1
20260901054746 65 240 2.0 7.0 0.00 0.00 0.00 100 960.0
20260901054644 65 244 2.0 7.0 0.00 0.00 0.00 100 960.0
20260901054440 66 246 1.0 7.0 0.00 0.00 0.00 100 959.9
20260901054237 66 0 1.0 4.0 0.00 0.00 0.00 100 960.1
20260901054136 66 0 1.0 4.0 0.00 0.00 0.00 100 960.1
20260901054034 66 0 1.0 4.0 0.00 0.00 0.00 100 960.0
20260901053831 67 0 0.0 3.0 0.00 0.00 0.00 100 960.0
20260901053627 66 0 0.0 3.0 0.00 0.00 0.00 100 960.1
20260901053527 66 0 0.0 3.0 0.00 0.00 0.00 100 960.0
20260901053424 66 0 0.0 3.0 0.00 0.00 0.00 100 960.0
20260901053221 66 0 0.0 3.0 0.00 0.00 0.00 100 960.0
20260901053018 66 0 0.0 3.0 0.00 0.00 0.00 100 960.0
20260901052917 65 0 0.0 3.0 0.00 0.00 0.00 100 960.0
20260901052815 65 0 1.0 3.0 0.00 0.00 0.00 100 960.0
20260901052612 65 0 1.0 3.0 0.00 0.00 0.00 100 959.9
20260901052409 64 0 1.0 4.0 0.00 0.00 0.00 100 959.9
20260901052308 64 0 1.0 4.0 0.00 0.00 0.00 100 959.9
20260901052205 64 0 2.0 6.0 0.00 0.00 0.00 100 959.8
20260901052002 64 258 2.0 9.0 0.00 0.00 0.00 100 959.9
20260901051759 64 244 3.0 9.0 0.00 0.00 0.00 100 959.9
20260901051659 64 242 2.0 6.0 0.00 0.00 0.00 100 959.8
20260901051556 64 250 2.0 7.0 0.00 0.00 0.00 100 959.7
20260901051353 64 244 3.0 9.0 0.00 0.00 0.00 100 959.8
20260901051150 64 234 2.0 10.0 0.00 0.00 0.00 100 959.6
20260901051049 64 235 2.0 10.0 0.00 0.00 0.00 100 959.7
20260901050947 64 232 2.0 10.0 0.00 0.00 0.00 100 959.6
20260901050744 64 226 2.0 10.0 0.00 0.00 0.00 100 959.5
20260901050540 64 216 1.0 4.0 0.00 0.00 0.00 100 959.6
20260901050439 64 214 1.0 4.0 0.00 0.00 0.00 100 959.6
20260901050337 64 215 1.0 4.0 0.00 0.00 0.00 100 959.6
20260901050124 64 224 1.0 4.0 0.00 0.00 0.00 100 959.5
20260901045921 64 225 1.0 4.0 0.00 0.00 0.00 100 959.6
20260901045821 64 0 0.0 2.0 0.00 0.00 0.00 100 959.6
20260901045719 64 0 0.0 3.0 0.00 0.00 0.00 100 959.6
20260901045516 63 0 1.0 3.0 0.00 0.00 0.00 100 959.6
20260901045313 63 0 0.0 4.0 0.00 0.00 0.00 100 959.6
20260901045212 63 255 1.0 7.0 0.00 0.00 0.00 100 959.6
20260901045110 63 255 2.0 7.0 0.00 0.00 0.00 100 959.5
20260901044907 63 252 2.0 7.0 0.00 0.00 0.00 100 959.6
20260901044704 63 230 1.0 5.0 0.00 0.00 0.00 100 959.6
20260901044603 62 222 1.0 5.0 0.00 0.00 0.00 100 959.6
20260901044500 62 222 1.0 4.0 0.00 0.00 0.00 100 959.5
20260901044258 62 220 1.0 4.0 0.00 0.00 0.00 100 959.5
20260901044054 62 222 1.0 4.0 0.00 0.00 0.00 100 959.4
20260901043954 61 220 1.0 5.0 0.00 0.00 0.00 100 959.5
20260901043851 61 225 1.0 5.0 0.00 0.00 0.00 100 959.4
20260901043647 61 235 1.0 5.0 0.00 0.00 0.00 100 959.5
20260901043445 61 0 1.0 4.0 0.00 0.00 0.00 100 959.5
20260901043345 61 0 1.0 4.0 0.00 0.00 0.00 100 959.4
20260901043242 61 0 1.0 4.0 0.00 0.00 0.00 100 959.4
20260901043039 61 0 1.0 4.0 0.00 0.00 0.00 100 959.3
20260901042835 61 239 1.0 7.0 0.00 0.00 0.00 100 959.4
20260901042633 61 241 2.0 7.0 0.00 0.00 0.00 100 959.4
20260901042429 61 239 2.0 7.0 0.00 0.00 0.00 100 959.4
20260901042226 60 238 2.0 10.0 0.00 0.00 0.00 100 959.3
20260901042125 60 241 2.0 10.0 0.00 0.00 0.00 100 959.4
20260901042022 59 238 2.0 10.0 0.00 0.00 0.00 100 959.4
20260901041819 59 220 1.0 4.0 0.00 0.00 0.00 100 959.3
20260901041616 59 0 1.0 5.0 0.00 0.00 0.00 100 959.3
20260901041515 59 230 1.0 5.0 0.00 0.00 0.00 100 959.3
20260901041413 59 0 1.0 5.0 0.00 0.00 0.00 100 959.3
20260901041210 59 0 1.0 5.0 0.00 0.00 0.00 100 959.3
20260901041007 59 0 1.0 4.0 0.00 0.00 0.00 100 959.2
20260901040906 59 0 1.0 4.0 0.00 0.00 0.00 100 959.2
20260901040803 59 0 1.0 4.0 0.00 0.00 0.00 100 959.2
20260901040600 58 0 1.0 4.0 0.00 0.00 0.00 100 959.2
20260901040357 58 0 1.0 4.0 0.00 0.00 0.00 100 959.2
20260901040153 58 0 1.0 5.0 0.00 0.00 0.00 100 959.1
20260901035950 58 0 1.0 4.0 0.00 0.00 0.00 100 959.1
20260901035748 58 0 1.0 4.0 0.00 0.00 0.00 100 959.2
20260901035648 58 0 1.0 5.0 0.00 0.00 0.00 100 959.2
20260901035544 59 225 1.0 5.0 0.00 0.00 0.00 100 959.2
20260901035340 59 0 1.0 5.0 0.00 0.00 0.00 100 959.1
20260901035138 59 206 1.0 4.0 0.00 0.00 0.00 100 959.1
20260901034934 58 204 1.0 4.0 0.00 0.00 0.00 100 959.0
20260901034731 59 0 1.0 4.0 0.00 0.00 0.00 100 959.1
20260901034528 59 0 1.0 4.0 0.00 0.00 0.00 100 959.0
20260901034429 59 0 1.0 4.0 0.00 0.00 0.00 100 959.0
20260901034325 59 0 1.0 4.0 0.00 0.00 0.00 100 958.9
20260901034123 59 0 1.0 5.0 0.00 0.00 0.00 100 959.0
20260901033920 59 217 1.0 6.0 0.00 0.00 0.00 100 959.0
20260901033716 59 0 1.0 6.0 0.00 0.00 0.00 100 959.0
20260901033513 59 0 1.0 6.0 0.00 0.00 0.00 100 958.9
20260901033310 60 0 1.0 5.0 0.00 0.00 0.00 100 958.9
20260901033209 60 0 1.0 5.0 0.00 0.00 0.00 100 958.9
20260901033107 60 0 1.0 5.0 0.00 0.00 0.00 100 959.0
20260901032904 60 0 1.0 4.0 0.00 0.00 0.00 100 959.0
20260901032701 59 208 1.0 4.0 0.00 0.00 0.00 100 958.9
20260901032600 60 212 1.0 4.0 0.00 0.00 0.00 100 958.8
20260901032458 60 0 1.0 4.0 0.00 0.00 0.00 100 958.9
20260901032255 60 0 1.0 4.0 0.00 0.00 0.00 100 958.9
20260901032051 60 0 1.0 3.0 0.00 0.00 0.00 100 958.9
20260901031950 60 0 1.0 3.0 0.00 0.00 0.00 100 958.9
20260901031847 60 0 1.0 3.0 0.00 0.00 0.00 100 958.9
20260901031645 60 0 1.0 5.0 0.00 0.00 0.00 100 958.9
20260901031442 60 0 1.0 5.0 0.00 0.00 0.00 100 959.0
20260901031341 60 0 1.0 4.0 0.00 0.00 0.00 100 958.9
20260901031239 61 0 1.0 4.0 0.00 0.00 0.00 100 958.9
20260901031035 60 0 1.0 4.0 0.00 0.00 0.00 100 958.9
20260901030833 61 0 1.0 3.0 0.00 0.00 0.00 100 959.0
20260901030732 61 0 1.0 3.0 0.00 0.00 0.00 100 959.0
20260901030630 62 0 1.0 5.0 0.00 0.00 0.00 100 959.0
20260901030426 62 264 3.0 14.0 0.00 0.00 0.00 100 959.0
20260901030223 64 253 4.0 14.0 0.00 0.00 0.00 100 959.0
20260901030123 63 238 4.0 9.0 0.00 0.00 0.00 100 959.0
20260901030021 63 238 3.0 8.0 0.00 0.00 0.00 100 959.0
20260901025817 63 237 2.0 10.0 0.00 0.00 0.00 100 958.9
20260901025615 63 267 4.0 10.0 0.00 0.00 0.00 100 959.1
20260901025514 63 269 3.0 8.0 0.00 0.00 0.00 100 959.0
20260901025411 63 271 3.0 8.0 0.00 0.00 0.00 100 959.1
20260901025208 62 244 1.0 7.0 0.00 0.00 0.00 100 959.0
20260901025005 62 0 1.0 4.0 0.00 0.00 0.00 100 959.0
20260901024905 62 0 1.0 4.0 0.00 0.00 0.00 100 959.0
20260901024802 63 0 2.0 10.0 0.00 0.00 0.00 100 959.1
20260901024559 64 240 2.0 10.0 0.00 0.00 0.00 100 959.0
20260901024355 64 260 2.0 8.0 0.00 0.00 0.00 100 959.0
20260901024153 65 283 4.0 11.0 0.00 0.00 0.00 100 958.9
20260901023949 65 276 3.0 11.0 0.00 0.00 0.00 100 959.0
20260901023747 64 242 2.0 10.0 0.00 0.00 0.00 100 958.9
20260901023646 65 267 4.0 15.0 0.00 0.00 0.00 100 959.0
20260901023544 65 266 4.0 15.0 0.00 0.00 0.00 100 958.9
20260901023340 65 273 4.0 15.0 0.00 0.00 0.00 100 958.8
20260901023137 65 291 5.0 12.0 0.00 0.00 0.00 100 958.8
20260901023037 65 284 7.0 16.0 0.00 0.00 0.00 100 958.8
20260901022934 65 280 7.0 23.0 0.00 0.00 0.00 100 958.8
20260901022731 66 258 7.0 23.0 0.00 0.00 0.00 100 958.9
20260901022528 65 265 6.0 16.0 0.00 0.00 0.00 100 958.9
20260901022427 65 263 7.0 16.0 0.00 0.00 0.00 100 958.8
20260901022312 66 260 6.0 16.0 0.00 0.00 0.00 100 958.8
20260901022108 64 242 3.0 14.0 0.00 0.00 0.00 100 958.7
20260901021906 64 264 5.0 14.0 0.00 0.00 0.00 100 958.8
20260901021805 65 266 5.0 14.0 0.00 0.00 0.00 100 958.7
20260901021703 64 272 5.0 14.0 0.00 0.00 0.00 100 958.6
20260901021459 62 289 3.0 12.0 0.00 0.00 0.00 100 958.7
20260901021256 62 284 4.0 10.0 0.00 0.00 0.00 100 958.6
20260901021155 62 296 4.0 10.0 0.00 0.00 0.00 100 958.7
20260901021053 62 292 4.0 10.0 0.00 0.00 0.00 100 958.7
20260901020850 61 315 4.0 7.0 0.00 0.00 0.00 100 958.5
20260901020648 62 269 4.0 8.0 0.00 0.00 0.00 100 958.6
20260901020547 63 253 4.0 9.0 0.00 0.00 0.00 100 958.5
20260901020444 62 238 3.0 9.0 0.00 0.00 0.00 100 958.7
20260901020241 62 264 2.0 9.0 0.00 0.00 0.00 100 958.6
20260901020038 62 299 2.0 8.0 0.00 0.00 0.00 100 958.6
20260901015937 61 298 2.0 4.0 0.00 0.00 0.00 100 958.5
20260901015835 61 282 2.0 4.0 0.00 0.00 0.00 100 958.5
20260901015631 62 254 1.0 4.0 0.00 0.00 0.00 100 958.5
20260901015429 62 0 1.0 4.0 0.00 0.00 0.00 100 958.6
20260901015328 62 0 0.0 4.0 0.00 0.00 0.00 100 958.6
20260901015225 62 0 0.0 4.0 0.00 0.00 0.00 100 958.7
20260901015023 62 0 0.0 2.0 0.00 0.00 0.00 100 958.6
20260901014820 62 0 0.0 2.0 0.00 0.00 0.00 100 958.6
20260901014719 63 0 0.0 2.0 0.00 0.00 0.00 100 958.7
20260901014617 63 0 0.0 2.0 0.00 0.00 0.00 100 958.5
20260901014414 63 263 1.0 10.0 0.00 0.00 0.00 100 958.6
20260901014211 64 260 3.0 10.0 0.00 0.00 0.00 100 958.5
20260901014111 63 258 2.0 10.0 0.00 0.00 0.00 100 958.7
20260901014008 63 260 2.0 10.0 0.00 0.00 0.00 100 958.6
20260901013805 62 0 1.0 4.0 0.00 0.00 0.00 100 958.6
20260901013602 62 0 1.0 3.0 0.00 0.00 0.00 100 958.7
20260901013501 63 0 1.0 4.0 0.00 0.00 0.00 100 958.7
20260901013359 63 0 1.0 4.0 0.00 0.00 0.00 100 958.7
20260901013155 63 0 1.0 4.0 0.00 0.00 0.00 100 958.8
20260901012952 64 258 2.0 11.0 0.00 0.00 0.00 100 958.6
20260901012852 64 266 3.0 11.0 0.00 0.00 0.00 100 958.6
20260901012750 64 267 3.0 11.0 0.00 0.00 0.00 100 958.6
20260901012547 63 266 2.0 10.0 0.00 0.00 0.00 100 958.6
20260901012345 62 0 1.0 3.0 0.00 0.00 0.00 100 958.7
20260901012244 62 0 1.0 4.0 0.00 0.00 0.00 100 958.7
20260901012142 62 0 1.0 4.0 0.00 0.00 0.00 100 958.7
20260901011939 63 0 1.0 4.0 0.00 0.00 0.00 100 958.7
20260901011735 63 241 1.0 5.0 0.00 0.00 0.00 100 958.8
20260901011635 63 236 1.0 5.0 0.00 0.00 0.00 100 958.8
20260901011533 63 238 1.0 5.0 0.00 0.00 0.00 100 958.8
20260901011330 63 0 0.0 3.0 0.00 0.00 0.00 100 958.9
20260901011127 64 253 1.0 3.0 0.00 0.00 0.00 100 958.9
20260901011026 64 256 1.0 4.0 0.00 0.00 0.00 100 958.8
20260901010923 64 255 1.0 4.0 0.00 0.00 0.00 100 958.8
20260901010720 65 256 2.0 5.0 0.00 0.00 0.00 100 959.0
20260901010517 65 246 2.0 8.0 0.00 0.00 0.00 100 959.0
20260901010416 65 243 2.0 8.0 0.00 0.00 0.00 100 959.0
20260901010312 64 265 3.0 8.0 0.00 0.00 0.00 100 958.9
20260901010109 64 274 2.0 8.0 0.00 0.00 0.00 100 958.8
20260901005906 64 285 2.0 10.0 0.00 0.00 0.00 100 958.8
20260901005704 65 285 3.0 10.0 0.00 0.00 0.00 100 958.8
20260901005500 66 283 4.0 11.0 0.00 0.00 0.00 100 958.9
20260901005257 66 286 6.0 11.0 0.00 0.00 0.00 100 958.8
20260901005054 66 284 7.0 11.0 0.00 0.00 0.00 100 958.8
20260901004850 65 260 5.0 12.0 0.00 0.00 0.00 100 958.8
20260901004647 64 246 2.0 9.0 0.00 0.00 0.00 100 959.0
20260901004546 63 235 1.0 8.0 0.00 0.00 0.00 100 959.0
20260901004444 63 226 1.0 5.0 0.00 0.00 0.00 100 958.9
20260901004241 63 217 1.0 5.0 0.00 0.00 0.00 100 958.9
20260901004037 63 215 1.0 5.0 0.00 0.00 0.00 100 959.0
20260901003937 63 0 1.0 4.0 0.00 0.00 0.00 100 959.0
20260901003835 63 227 1.0 4.0 0.00 0.00 0.00 100 958.9
20260901003631 63 0 1.0 3.0 0.00 0.00 0.00 100 958.9
20260901003428 63 0 1.0 3.0 0.00 0.00 0.00 100 958.9
20260901003327 63 0 1.0 3.0 0.00 0.00 0.00 100 959.0
20260901003225 63 0 1.0 3.0 0.00 0.00 0.00 100 959.1
20260901003022 64 0 1.0 5.0 0.00 0.00 0.00 100 959.1
20260901002819 64 0 1.0 5.0 0.00 0.00 0.00 100 959.1
20260901002718 64 0 1.0 5.0 0.00 0.00 0.00 100 959.1
20260901002616 64 0 1.0 4.0 0.00 0.00 0.00 100 959.1
20260901002413 64 0 1.0 4.0 0.00 0.00 0.00 100 959.1
20260901002210 64 0 1.0 5.0 0.00 0.00 0.00 100 959.1
20260901002109 64 0 1.0 5.0 0.00 0.00 0.00 100 959.0
20260901002006 64 218 1.0 5.0 0.00 0.00 0.00 100 959.1
20260901001803 63 0 1.0 5.0 0.00 0.00 0.00 100 959.3
20260901001600 63 0 1.0 4.0 0.00 0.00 0.00 100 959.3
20260901001500 63 0 1.0 4.0 0.00 0.00 0.00 100 959.2
20260901001358 63 0 1.0 4.0 0.00 0.00 0.00 100 959.2
20260901001154 64 0 1.0 4.0 0.00 0.00 0.00 100 959.2
20260901000951 64 0 1.0 3.0 0.00 0.00 0.00 100 959.2
20260901000748 64 0 1.0 4.0 0.00 0.00 0.00 100 959.2
20260901000544 64 0 1.0 4.0 0.00 0.00 0.00 100 959.2
20260901000343 64 239 1.0 9.0 0.00 0.00 0.00 100 959.2
20260901000241 64 239 2.0 9.0 0.00 0.00 0.00 100 959.1
20260901000139 65 237 2.0 9.0 0.00 0.00 0.00 100 959.2
20260831235936 65 235 2.0 9.0 0.00 0.00 0.00 100 959.2
20260831235733 65 240 2.0 10.0 0.00 0.00 0.00 100 959.2
20260831235632 65 235 2.0 10.0 0.00 0.00 0.00 100 959.2
20260831235530 65 238 2.0 10.0 0.00 0.00 0.00 100 959.2
20260831235327 65 236 2.0 6.0 0.00 0.00 0.00 100 959.3
20260831235123 65 231 2.0 5.0 0.00 0.00 0.00 100 959.1
20260831234920 65 221 1.0 5.0 0.00 0.00 0.00 100 959.1
20260831234718 65 227 1.0 5.0 0.00 0.00 0.00 100 959.1
20260831234515 65 230 1.0 6.0 0.00 0.00 0.00 100 959.1
20260831234400 66 229 1.0 6.0 0.00 0.00 0.00 100 959.2
20260831234258 66 230 2.0 6.0 0.00 0.00 0.00 100 959.1
20260831234055 65 237 2.0 7.0 0.00 0.00 0.00 100 959.2
20260831233852 66 243 2.0 7.0 0.00 0.00 0.00 100 959.2
20260831233649 66 238 2.0 6.0 0.00 0.00 0.00 100 959.2
20260831233446 66 246 3.0 7.0 0.00 0.00 0.00 100 959.2
20260831233243 66 256 3.0 7.0 0.00 0.00 0.00 100 959.2
20260831233040 66 253 3.0 7.0 0.00 0.00 0.00 100 959.3
20260831232837 66 247 2.0 7.0 0.00 0.00 0.00 100 959.3
20260831232635 67 249 4.0 16.0 0.00 0.00 0.00 100 959.3
20260831232534 67 246 4.0 16.0 0.00 0.00 0.00 100 959.4
20260831232432 67 247 4.0 16.0 0.00 0.00 0.00 100 959.3
20260831232229 67 262 5.0 15.0 0.00 0.00 0.00 100 959.3
20260831232026 67 261 6.0 15.0 0.00 0.00 0.00 100 959.4
20260831231925 67 258 6.0 13.0 0.00 0.00 0.00 100 959.5
20260831231823 67 259 6.0 13.0 0.00 0.00 0.00 100 959.4
20260831231621 67 266 5.0 10.0 0.00 0.00 0.00 100 959.5
20260831231417 67 278 7.0 16.0 0.00 0.00 0.00 100 959.4
20260831231316 67 275 6.0 16.0 0.00 0.00 0.00 100 959.4
20260831231214 67 271 6.0 16.0 0.00 0.00 0.00 100 959.4
20260831231011 67 248 4.0 12.0 0.00 0.00 0.00 100 959.5
20260831230808 67 263 5.0 12.0 0.00 0.00 0.00 100 959.4
20260831230708 67 271 5.0 9.0 0.00 0.00 0.00 100 959.5
20260831230605 68 283 6.0 12.0 0.00 0.00 0.00 100 959.4
20260831230402 68 272 6.0 14.0 0.00 0.00 0.00 100 959.4
20260831230159 67 262 8.0 24.0 0.00 0.00 0.00 100 959.3
20260831230057 67 255 7.0 24.0 0.00 0.00 0.00 100 959.4
20260831225955 67 260 8.0 24.0 0.00 0.00 0.00 100 959.3
20260831225752 67 259 6.0 13.0 0.00 0.00 0.00 100 959.3
20260831225549 67 260 5.0 13.0 0.00 0.00 0.00 100 959.3
20260831225448 67 257 6.0 12.0 0.00 0.00 0.00 100 959.3
20260831225346 67 256 6.0 13.0 0.00 0.00 0.00 100 959.3
20260831225142 67 258 4.0 13.0 0.00 0.00 0.00 100 959.3
20260831224939 66 282 4.0 7.0 0.00 0.00 0.00 100 959.3
20260831224838 66 284 5.0 10.0 0.00 0.00 0.00 100 959.2
20260831224736 66 284 5.0 10.0 0.00 0.00 0.00 100 959.2
20260831224532 66 276 4.0 10.0 0.00 0.00 0.00 100 959.2
20260831224329 65 246 3.0 8.0 0.00 0.00 0.00 100 959.2
20260831224229 64 245 2.0 7.0 0.00 0.00 0.00 100 959.1
20260831224126 64 248 2.0 7.0 0.00 0.00 0.00 100 959.2
20260831223924 64 257 2.0 7.0 0.00 0.00 0.00 100 959.2
20260831223719 62 247 2.0 7.0 0.00 0.00 0.00 100 959.1
20260831223619 62 230 1.0 3.0 0.00 0.00 0.00 100 959.1
20260831223516 62 227 1.0 3.0 0.00 0.00 0.00 100 959.0
20260831223313 62 210 1.0 2.0 0.00 0.00 0.00 100 959.0
20260831223110 62 213 1.0 2.0 0.00 0.00 0.00 100 959.0
20260831223010 61 217 1.0 2.0 0.00 0.00 0.00 100 959.0
20260831222908 62 214 1.0 3.0 0.00 0.00 0.00 100 959.0
20260831222705 62 0 1.0 3.0 0.00 0.00 0.00 100 959.0
20260831222502 62 0 1.0 3.0 0.00 0.00 0.00 100 959.0
20260831222402 62 0 1.0 3.0 0.00 0.00 0.00 100 959.0
20260831222300 62 0 0.0 2.0 0.00 0.00 0.00 100 959.0
20260831222056 62 0 0.0 2.0 0.00 0.00 0.00 100 959.1
20260831221854 62 0 0.0 2.0 0.00 0.00 0.00 100 959.0
20260831221753 62 0 0.0 2.0 0.00 0.00 0.00 100 959.0
20260831221650 62 0 1.0 2.0 0.00 0.00 0.00 100 958.9
20260831221448 62 0 1.0 3.0 0.00 0.00 0.00 100 959.0
20260831221244 62 0 1.0 4.0 0.00 0.00 0.00 100 959.0
20260831221144 62 0 1.0 4.0 0.00 0.00 0.00 100 959.1
20260831221041 62 0 1.0 4.0 0.00 0.00 0.00 100 959.1
20260831220838 61 0 1.0 4.0 0.00 0.00 0.00 100 959.0
20260831220635 61 0 1.0 3.0 0.00 0.00 0.00 100 959.0
20260831220535 61 0 1.0 3.0 0.00 0.00 0.00 100 958.9
20260831220433 61 0 1.0 5.0 0.00 0.00 0.00 100 958.9
20260831220229 62 206 1.0 5.0 0.00 0.00 0.00 100 959.0
20260831220026 62 207 1.0 4.0 0.00 0.00 0.00 100 959.0
20260831215925 62 208 1.0 3.0 0.00 0.00 0.00 100 958.9
20260831215823 62 0 1.0 5.0 0.00 0.00 0.00 100 959.0
20260831215620 62 193 1.0 5.0 0.00 0.00 0.00 100 958.9
20260831215416 63 200 1.0 6.0 0.00 0.00 0.00 100 959.0
20260831215316 63 205 1.0 6.0 0.00 0.00 0.00 100 959.1
20260831215213 63 211 2.0 6.0 0.00 0.00 0.00 100 959.1
20260831215011 63 0 1.0 4.0 0.00 0.00 0.00 100 959.0
20260831214807 63 0 1.0 4.0 0.00 0.00 0.00 100 959.1
20260831214604 63 0 1.0 4.0 0.00 0.00 0.00 100 959.2
20260831214401 64 0 1.0 4.0 0.00 0.00 0.00 100 959.1
20260831214158 63 0 1.0 4.0 0.00 0.00 0.00 100 959.1
20260831214057 63 0 1.0 4.0 0.00 0.00 0.00 100 959.1
20260831213955 63 0 0.0 2.0 0.00 0.00 0.00 100 959.1
20260831213752 63 0 0.0 2.0 0.00 0.00 0.00 100 959.1
20260831213548 63 194 1.0 3.0 0.00 0.00 0.00 100 959.1
20260831213447 63 199 1.0 3.0 0.00 0.00 0.00 100 959.1
20260831213345 63 207 0.0 3.0 0.00 0.00 0.00 100 959.1
20260831213142 64 0 0.0 1.0 0.00 0.00 0.00 100 959.1
20260831212939 64 0 0.0 2.0 0.00 0.00 0.00 100 959.1
20260831212838 64 206 0.0 2.0 0.00 0.00 0.00 100 959.1
20260831212736 64 211 1.0 2.0 0.00 0.00 0.00 100 959.1
20260831212533 64 241 1.0 2.0 0.00 0.00 0.00 100 959.0
20260831212329 64 305 1.0 3.0 0.00 0.00 0.00 100 959.0
20260831212229 64 307 2.0 3.0 0.00 0.00 0.00 100 959.1
20260831212126 64 306 2.0 3.0 0.00 0.00 0.00 100 959.0
20260831211922 64 314 2.0 5.0 0.00 0.00 0.00 100 959.0
20260831211719 64 319 3.0 8.0 0.00 0.00 0.00 100 958.9
20260831211619 64 319 2.0 8.0 0.00 0.00 0.00 100 958.9
20260831211423 64 312 2.0 8.0 0.00 0.00 0.00 100 958.9
20260831211221 64 304 3.0 6.0 0.00 0.00 0.00 100 958.9
20260831211120 64 299 3.0 7.0 0.00 0.00 0.00 100 958.9
20260831211018 64 289 3.0 7.0 0.00 0.00 0.00 100 958.9
20260831210814 64 282 2.0 7.0 0.00 0.00 0.00 100 958.9
20260831210611 63 269 2.0 4.0 0.00 0.00 0.00 100 958.8
20260831210511 63 263 1.0 3.0 0.00 0.00 0.00 100 958.8
20260831210408 62 237 1.0 4.0 0.00 0.00 0.00 100 958.8
20260831210205 62 229 1.0 2.0 0.00 0.00 0.00 100 958.8
20260831210002 62 0 0.0 3.0 0.00 0.00 0.00 100 958.8
20260831205847 62 0 0.0 2.0 0.00 0.00 0.00 100 958.7
20260831205744 62 0 0.0 2.0 0.00 0.00 0.00 100 958.7
20260831205541 62 0 0.0 2.0 0.00 0.00 0.00 100 958.8
20260831205339 62 0 0.0 2.0 0.00 0.00 0.00 100 958.7
20260831205237 62 0 0.0 2.0 0.00 0.00 0.00 100 958.7
20260831205135 62 0 0.0 2.0 0.00 0.00 0.00 100 958.7
20260831204932 62 0 0.0 2.0 0.00 0.00 0.00 100 958.6
20260831204730 62 0 0.0 2.0 0.00 0.00 0.00 100 958.7
20260831204629 62 0 0.0 3.0 0.00 0.00 0.00 100 958.5
20260831204527 62 0 0.0 3.0 0.00 0.00 0.00 100 958.4
20260831204325 62 0 0.0 3.0 0.00 0.00 0.00 100 958.5
20260831204121 62 209 1.0 3.0 0.00 0.00 0.00 100 958.5
20260831204021 62 207 1.0 3.0 0.00 0.00 0.00 100 958.5
20260831203919 62 208 1.0 3.0 0.00 0.00 0.00 100 958.5
20260831203715 62 210 1.0 2.0 0.00 0.00 0.00 100 958.4
20260831203512 62 213 1.0 2.0 0.00 0.00 0.00 100 958.3
20260831203412 62 208 1.0 2.0 0.00 0.00 0.00 100 958.3
20260831203309 63 197 1.0 3.0 0.00 0.00 0.00 100 958.3
20260831203106 63 203 1.0 3.0 0.00 0.00 0.00 100 958.4
20260831202903 62 217 1.0 3.0 0.00 0.00 0.00 100 958.3
20260831202803 62 217 1.0 3.0 0.00 0.00 0.00 100 958.4
20260831202700 63 197 1.0 2.0 0.00 0.00 0.00 100 958.4
20260831202457 62 195 1.0 2.0 0.00 0.00 0.00 100 958.3
20260831202253 62 199 1.0 2.0 0.00 0.00 0.00 100 958.4
20260831202153 62 201 1.0 2.0 0.00 0.00 0.00 100 958.4
20260831202050 62 203 1.0 4.0 0.00 0.00 0.00 100 958.4
20260831201848 62 191 2.0 4.0 0.00 0.00 0.00 100 958.4
20260831201644 62 182 2.0 4.0 0.00 0.00 0.00 100 958.4
20260831201543 62 182 2.0 3.0 0.00 0.00 0.00 100 958.4
20260831201441 63 184 1.0 3.0 0.00 0.00 0.00 100 958.5
20260831201238 63 187 1.0 3.0 0.00 0.00 0.00 100 958.4
20260831201035 63 152 2.0 4.0 0.00 0.00 0.00 100 958.4
20260831200934 63 148 2.0 4.0 0.00 0.00 0.00 100 958.4
20260831200832 63 143 2.0 4.0 0.00 0.00 0.00 100 958.4
20260831200629 64 129 2.0 3.0 0.00 0.00 0.00 100 958.4
20260831200426 64 142 1.0 2.0 0.00 0.00 0.00 100 958.3
20260831200326 63 162 1.0 2.0 0.00 0.00 0.00 100 958.3
20260831200223 63 185 1.0 2.0 0.00 0.00 0.00 100 958.3
20260831200021 63 188 1.0 3.0 0.00 0.00 0.00 100 958.2
20260831195818 63 203 1.0 3.0 0.00 0.00 0.00 100 958.3
20260831195718 63 0 0.0 3.0 0.00 0.00 0.00 100 958.2
20260831195615 64 0 1.0 3.0 0.00 0.00 0.00 100 958.1
20260831195412 64 174 2.0 4.0 0.00 0.00 0.00 100 958.2
20260831195208 64 181 2.0 4.0 0.00 0.00 0.00 100 958.1
20260831195005 64 178 2.0 4.0 0.00 0.00 0.00 100 958.1
20260831194802 64 167 2.0 4.0 0.00 0.00 0.00 100 958.1
20260831194559 65 163 1.0 3.0 0.00 0.00 0.00 100 958.1
20260831194458 65 0 1.0 3.0 0.00 0.00 0.00 100 958.1
20260831194356 65 43 1.0 3.0 0.00 0.00 0.00 100 958.2
20260831194153 65 27 1.0 3.0 0.00 0.00 0.00 100 958.1
20260831193950 65 0 1.0 4.0 0.00 0.00 0.00 100 958.1
20260831193849 65 0 1.0 4.0 0.00 0.00 0.00 100 958.2
20260831193746 65 234 1.0 4.0 0.00 0.00 0.00 100 958.2
20260831193544 65 210 1.0 4.0 0.00 0.00 0.00 100 958.1
20260831193340 65 209 2.0 4.0 0.00 0.00 0.00 100 958.0
20260831193239 65 226 1.0 3.0 0.00 0.00 0.00 100 958.1
20260831193137 65 232 1.0 3.0 0.00 0.00 0.00 100 958.0
20260831192934 65 237 1.0 3.0 0.00 0.00 0.00 100 958.1
20260831192731 65 222 1.0 3.0 0.00 0.00 0.00 100 957.9
20260831192630 65 220 1.0 3.0 0.00 0.00 0.00 100 957.9
20260831192528 65 217 1.0 3.0 0.00 0.00 0.00 100 957.9
20260831192325 65 0 0.0 2.0 0.00 0.00 0.00 100 958.1
20260831192122 65 252 1.0 2.0 0.00 0.00 0.00 100 958.1
20260831192021 66 247 1.0 2.0 0.00 0.00 0.00 100 958.1
20260831191919 66 248 1.0 2.0 0.00 0.00 0.00 100 958.0
20260831191716 65 244 1.0 2.0 0.00 0.00 0.00 100 958.0
20260831191513 65 0 0.0 2.0 0.00 0.00 0.00 100 957.9
20260831191412 65 0 1.0 3.0 0.00 0.00 0.00 100 957.9
20260831191310 65 0 1.0 3.0 0.00 0.00 0.00 100 958.0
20260831191107 65 0 1.0 3.0 0.00 0.00 0.00 100 958.0
20260831190905 65 0 1.0 3.0 0.00 0.00 0.00 100 958.0
20260831190804 65 0 1.0 3.0 0.00 0.00 0.00 100 957.9
20260831190701 65 0 1.0 3.0 0.00 0.00 0.00 100 957.9
20260831190458 65 0 1.0 3.0 0.00 0.00 0.00 100 957.8
20260831190255 65 0 0.0 4.0 0.00 0.00 0.00 100 957.9
20260831190052 65 0 1.0 4.0 0.00 0.00 0.00 100 957.9
20260831185848 65 0 1.0 3.0 0.00 0.00 0.00 100 957.8
20260831185646 65 0 1.0 3.0 0.00 0.00 0.00 100 957.9
20260831185443 65 0 1.0 3.0 0.00 0.00 0.00 100 957.9
20260831185240 65 0 1.0 3.0 0.00 0.00 0.00 100 957.8
20260831185037 65 0 1.0 3.0 0.00 0.00 0.00 100 957.7
20260831184937 66 227 1.0 3.0 0.00 0.00 0.00 100 957.8
20260831184834 66 237 1.0 3.0 0.00 0.00 0.00 100 957.7
20260831184631 66 241 1.0 4.0 0.00 0.00 0.00 100 957.8
20260831184429 66 0 1.0 4.0 0.00 0.00 0.00 100 957.7
20260831184225 66 0 1.0 4.0 0.00 0.00 0.00 100 957.8
20260831184023 66 0 1.0 4.0 0.00 0.00 0.00 100 957.7
20260831183820 66 0 1.0 5.0 0.00 0.00 0.00 100 957.7
20260831183720 66 0 1.0 5.0 0.00 0.00 0.00 100 957.8
20260831183617 66 0 1.0 5.0 0.00 0.00 0.00 100 957.8
20260831183415 66 0 1.0 3.0 0.00 0.00 0.00 100 957.7
20260831183212 66 0 1.0 3.0 0.00 0.00 0.00 100 957.8
20260831183111 66 0 1.0 3.0 0.00 0.00 0.00 100 957.8
20260831183008 66 0 1.0 3.0 0.00 0.00 0.00 100 957.8
20260831182805 66 0 1.0 3.0 0.00 0.00 0.00 100 957.8
20260831182602 66 0 1.0 4.0 0.00 0.00 0.00 100 957.8
20260831182501 66 0 1.0 6.0 0.00 0.00 0.00 100 957.8
20260831182359 66 222 1.0 6.0 0.00 0.00 0.00 100 957.7
20260831182156 66 214 1.0 6.0 0.00 0.00 0.00 100 957.8
20260831181939 66 0 1.0 3.0 0.00 0.00 0.00 100 957.8
20260831181838 66 0 1.0 3.0 0.00 0.00 0.00 100 957.8
20260831181736 66 0 1.0 3.0 0.00 0.00 0.00 100 957.8
20260831181533 66 0 1.0 5.0 0.00 0.00 0.00 100 957.7
20260831181329 67 0 1.0 5.0 0.00 0.00 0.00 100 957.8
20260831181228 67 0 1.0 5.0 0.00 0.00 0.00 100 957.8
20260831181126 67 0 1.0 5.0 0.00 0.00 0.00 100 957.8
20260831180923 67 0 1.0 5.0 0.00 0.00 0.00 100 957.7
20260831180719 67 0 1.0 4.0 0.00 0.00 0.00 100 957.6
20260831180618 68 0 1.0 4.0 0.00 0.00 0.00 100 957.6
20260831180516 68 0 1.0 4.0 0.00 0.00 0.00 100 957.6
20260831180313 67 0 1.0 4.0 0.00 0.00 0.00 100 957.6
20260831180110 67 0 1.0 4.0 0.00 0.00 0.00 100 957.6
20260831180009 67 0 1.0 4.0 0.00 0.00 0.00 100 957.6
20260831175907 67 0 1.0 3.0 0.00 0.00 0.00 100 957.5
20260831175704 67 0 1.0 4.0 0.00 0.00 0.00 100 957.6
20260831175501 68 0 1.0 4.0 0.00 0.00 0.00 100 957.5
20260831175400 68 0 1.0 4.0 0.00 0.00 0.00 100 957.6
20260831175257 68 0 1.0 4.0 0.00 0.00 0.00 100 957.4
20260831175054 68 0 1.0 4.0 0.00 0.00 0.00 100 957.5
20260831174851 68 0 1.0 4.0 0.00 0.00 0.00 100 957.5
20260831174749 68 0 1.0 4.0 0.00 0.00 0.00 100 957.3
20260831174647 69 0 1.0 4.0 0.00 0.00 0.00 100 957.5
20260831174444 69 0 1.0 4.0 0.00 0.00 0.00 100 957.3
20260831174241 69 0 1.0 2.0 0.00 0.00 0.00 100 957.4
20260831174140 69 0 0.0 2.0 0.00 0.00 0.00 100 957.5
20260831174038 69 0 1.0 3.0 0.00 0.00 0.00 100 957.4
20260831173834 69 0 1.0 4.0 0.00 0.00 0.00 100 957.5
20260831173631 69 0 1.0 4.0 0.00 0.00 0.00 100 957.5
20260831173530 69 0 1.0 3.0 0.00 0.00 0.00 100 957.4
20260831173428 70 0 1.0 3.0 0.00 0.00 0.00 100 957.4
20260831173225 70 0 1.0 4.0 0.00 0.00 0.00 100 957.4
20260831173021 70 0 1.0 4.0 0.00 0.00 0.00 100 957.3
20260831172921 70 0 1.0 4.0 0.00 0.00 0.00 100 957.3
20260831172819 70 0 1.0 4.0 0.00 0.00 0.00 100 957.3
20260831172616 70 0 1.0 3.0 0.00 0.00 0.00 100 957.3
20260831172413 70 0 1.0 3.0 0.00 0.00 0.00 100 957.3
20260831172211 70 0 1.0 3.0 0.00 0.00 0.00 100 957.3
20260831172007 70 0 1.0 3.0 0.00 0.00 0.00 100 957.3
20260831171805 71 0 1.0 4.0 0.00 0.00 0.00 100 957.3
20260831171704 71 0 1.0 4.0 0.00 0.00 0.00 100 957.2
20260831171601 71 223 1.0 4.0 0.00 0.00 0.00 100 957.3
20260831171358 71 234 1.0 5.0 0.00 0.00 0.00 100 957.2
20260831171155 71 227 1.0 5.0 0.00 0.00 0.00 100 957.2
20260831171055 71 0 1.0 5.0 0.00 0.00 0.00 100 957.2
20260831170952 71 222 1.0 4.0 0.00 0.00 0.00 100 957.1
20260831170749 71 213 1.0 4.0 0.00 0.00 0.00 100 957.1
20260831170546 71 0 1.0 4.0 0.00 0.00 0.00 100 957.1
20260831170445 71 0 1.0 5.0 0.00 0.00 0.00 100 957.2
20260831170344 71 0 1.0 6.0 0.00 0.00 0.00 100 957.2
20260831170140 71 214 1.0 6.0 0.00 0.00 0.00 100 957.3
20260831165938 71 0 1.0 5.0 0.00 0.00 0.00 100 957.3
20260831165837 71 0 1.0 5.0 0.00 0.00 0.00 100 957.2
20260831165734 71 0 1.0 2.0 0.00 0.00 0.00 100 957.2
20260831165531 71 0 1.0 2.0 0.00 0.00 0.00 100 957.2
20260831165328 72 0 0.0 4.0 0.00 0.00 0.00 100 957.2
20260831165227 72 0 1.0 4.0 0.00 0.00 0.00 100 957.2
20260831165125 71 0 1.0 4.0 0.00 0.00 0.00 100 957.2
20260831164922 71 217 1.0 5.0 0.00 0.00 0.00 100 957.1
20260831164718 72 237 1.0 5.0 0.00 0.00 0.00 100 957.2
20260831164618 71 0 1.0 5.0 0.00 0.00 0.00 100 957.1
20260831164515 72 229 1.0 6.0 0.00 0.00 0.00 100 957.2
20260831164312 72 230 1.0 6.0 0.00 0.00 0.00 100 957.1
20260831164109 72 221 1.0 6.0 0.00 0.00 0.00 100 957.1
20260831164009 72 219 2.0 6.0 0.00 0.00 0.00 100 957.1
20260831163907 72 218 2.0 6.0 0.00 0.00 0.00 100 957.0
20260831163703 72 0 1.0 6.0 0.00 0.00 0.00 100 957.1
20260831163500 72 0 1.0 6.0 0.00 0.00 0.00 100 957.0
20260831163359 72 0 1.0 6.0 0.00 0.00 0.00 100 956.9
20260831163257 73 0 1.0 5.0 0.00 0.00 0.00 100 957.0
20260831163054 73 0 1.0 5.0 0.00 0.00 0.00 100 957.1
20260831162851 73 0 1.0 6.0 0.00 0.00 0.00 100 957.1
20260831162750 73 0 1.0 6.0 0.00 0.00 0.00 100 957.0
20260831162648 73 0 1.0 4.0 0.00 0.00 0.00 100 957.1
20260831162444 73 0 1.0 6.0 0.00 0.00 0.00 100 957.0
20260831162242 73 0 1.0 6.0 0.00 0.00 0.00 100 957.0
20260831162142 73 217 1.0 6.0 0.00 0.00 0.00 100 957.1
20260831162039 74 218 2.0 6.0 0.00 0.00 0.00 100 957.1
20260831161836 74 225 1.0 6.0 0.00 0.00 0.00 100 957.1
20260831161632 74 0 1.0 3.0 0.00 0.00 0.00 100 957.1